Location: Katwijk
(52.2000°N, 4.4170°E)
Time: 20:55:48
(UTC+01:00)

ISS - Visible Passes

Search period start: 22 December 2014 00:00
Search period end: 01 January 2015 00:00
Orbit: 404 x 414 km, 51.6° (Epoch: 22 December)

Date Brightness Start Highest point End Pass type
(mag) Time Alt. Az. Time Alt. Az. Time Alt. Az.
22 Dec -2.7 18:26:28 10° W 18:29:41 52° SSW 18:31:12 26° SE visible
22 Dec 0.2 20:03:41 10° WSW 20:03:59 11° WSW 20:03:59 11° WSW visible
23 Dec -3.0 17:35:37 10° W 17:38:54 66° SSW 17:42:10 10° ESE visible
23 Dec -1.2 19:12:27 10° W 19:15:07 23° SSW 19:15:34 22° SSW visible
24 Dec -1.6 18:21:24 10° W 18:24:24 32° SSW 18:27:19 10° SE visible
25 Dec -2.2 17:30:25 10° W 17:33:35 45° SSW 17:36:44 10° SE visible
25 Dec -0.3 19:08:03 10° WSW 19:09:33 13° SW 19:11:03 10° SSW visible
26 Dec -0.5 18:16:26 10° W 18:18:50 19° SW 18:21:13 10° SSE visible
27 Dec -1.0 17:25:10 10° W 17:28:01 27° SSW 17:30:51 10° SSE visible
29 Dec -0.1 17:20:06 10° WSW 17:22:09 16° SW 17:24:11 10° S visible
